Tracking 30743 objects as of 22-Jun-2025
HD Live streaming from Space Station
objects crossing your sky now

FENGYUN 1C DEB

Track FENGYUN 1C DEB now!
10-day predictions


NORAD ID: 30857
Int'l Code: 1999-025AWT
Perigee: 718.1 km
Apogee: 786.3 km
Inclination: 99.0 °
Period: 99.7 minutes
Semi major axis: 7123 km
RCS: 0.0138 m2 (small)
Launch date: May 10, 1999
Source: People's Republic of China (PRC)
Launch site: Taiyaun Space Center, China (TSC)

Note: This is SATELLITE DEBRIS
Your satellite tracking list
Your tracking list is empty




NASA's NSSDC Master Catalog

Two Line Element Set (TLE):
1 30857U 99025AWT 25171.90608242  .00007749  00000-0  22442-2 0  9998
2 30857  98.9561 151.3621 0047871  91.7827 268.8846 14.44073548941953
Source of the keplerian elements: AFSPC